Location: Newark
(16.3678°N, 77.8722°E)
Time: 11:25:18
(UTC+00:00)

S-56A Canister/Altair - Pass Details

Date: 10 December 2019
Orbit: 634 x 2498 km, 38.9° (Epoch: 27 January)

Event Time Altitude Azimuth Distance (km) Brightness Sun altitude
Rises 12:26:13 0° 305° (NW) 5,634 12.4 -3.0°
Reaches altitude 10° 12:30:21 10° 303° (WNW) 4,381 11.9 -3.9°
Maximum altitude 12:41:30 69° 223° (SW) 1,512 9.3 -6.4°
Drops below altitude 10° 12:48:43 10° 140° (SE) 2,911 10.3 -8.0°
Sets 12:50:58 0° 137° (SE) 3,673 10.8 -8.5°
